DateTimeUTC,F1_A11,F1_S11,BsB_S11,BsG_S11,BsR_S11,BbsB_S11,BbsG_S11,BbsR_S11,BaB_A11,BaG_A11,BaR_A11,Tu_S11,T_S11,Uu_S11,U_S11,P_S11,T1_A11
2021-11-29T00:00:00Z,00000200,21000000,,,,,,,0000.09,-000.33,0000.48,18.6,25.4,,00.0,0633.9,30.8
2021-11-29T00:01:00Z,00000200,21000000,,,,,,,0000.30,0000.40,-000.19,18.6,25.4,,00.0,0634.0,30.8
2021-11-29T00:02:00Z,00000200,21000000,,,,,,,0000.08,0000.09,0000.29,18.6,25.5,,00.0,0634.0,30.8
2021-11-29T00:03:00Z,00000200,61000000,,,,,,,0000.42,0000.55,0000.57,18.6,25.5,,00.0,0634.0,30.8
2021-11-29T00:04:00Z,00000200,41000000,-000.03,0000.22,0000.09,0000.50,0000.24,0000.18,0000.38,0000.14,0000.06,18.9,25.3,,00.0,0634.8,30.8
2021-11-29T00:05:00Z,00000200,01000000,0000.37,0000.11,0000.14,0000.00,0000.49,-000.18,0000.23,0000.22,0000.18,19.0,25.3,,00.0,0634.9,30.8
2021-11-29T00:06:00Z,00000200,01000000,0000.73,0000.55,0000.16,-000.18,0000.25,0000.19,0000.35,0000.58,0000.40,19.0,25.3,,00.0,0634.9,30.8
2021-11-29T00:07:00Z,00000200,01000000,0000.45,0000.49,0000.40,0000.18,0000.31,0000.13,0000.07,0000.22,0000.40,19.1,25.3,,00.0,0634.9,30.9
2021-11-29T00:08:00Z,00000200,01000000,0000.53,0000.24,0000.24,-000.43,0000.34,-000.14,0000.13,-000.30,-000.02,19.0,25.3,,00.0,0634.9,30.9
2021-11-29T00:09:00Z,00000200,01000000,0000.55,0000.18,0000.42,-000.31,0000.45,0000.33,0000.30,0000.28,-000.03,19.0,25.3,,00.0,0634.9,30.8
2021-11-29T00:10:00Z,00000200,01000000,-000.33,0000.04,0000.11,0000.10,0000.17,0000.07,0000.27,0000.50,0000.15,19.0,25.3,,00.0,0634.9,30.8
2021-11-29T00:11:00Z,00000200,01000000,0001.00,0000.29,0000.42,0000.54,0000.27,-000.31,0000.13,0000.14,0000.17,19.0,25.3,,00.0,0634.9,30.8
2021-11-29T00:12:00Z,00000200,01000000,0001.00,0000.20,0000.11,-000.07,0000.21,0000.13,0000.55,0000.43,0000.39,19.0,25.3,,00.0,0634.9,30.9
2021-11-29T00:13:00Z,00000200,01000000,-000.06,0000.37,-000.00,0000.50,-000.17,-000.08,0000.17,-000.04,0000.42,19.0,25.3,,00.0,0634.9,30.8
2021-11-29T00:14:00Z,00000200,01000000,0000.84,0000.13,0000.32,0000.19,0000.48,0000.14,0000.33,0000.41,0000.03,19.0,25.3,,00.0,0635.0,30.8
2021-11-29T00:15:00Z,00000200,01000000,0000.28,0000.39,0000.21,0000.27,0000.27,0000.11,0000.54,0000.57,0000.39,19.1,25.3,,00.0,0635.0,30.9
2021-11-29T00:16:00Z,00000200,01000000,0000.87,0000.25,0000.11,-000.02,0000.18,0000.20,0000.15,0000.11,0000.14,19.1,25.3,,00.0,0635.0,30.8
2021-11-29T00:17:00Z,00000200,01000000,0000.26,0000.18,0000.16,0000.30,-000.01,-000.08,0000.12,0000.47,0000.04,19.1,25.3,,00.0,0635.0,30.9
2021-11-29T00:18:00Z,00000200,01000000,0000.63,0000.13,0000.46,-000.04,0000.10,0000.22,0000.48,-000.06,0000.53,19.2,25.3,,00.0,0635.0,30.9
2021-11-29T00:19:00Z,00000200,01000000,0000.67,0000.39,-000.01,-000.04,-000.01,0000.15,0000.18,0000.50,-000.03,19.2,25.3,,00.0,0635.0,30.9
2021-11-29T00:20:00Z,00000200,01000000,0000.11,0000.48,0000.36,0000.50,0000.12,-000.27,0000.50,0000.06,0000.33,19.2,25.4,,00.0,0635.0,30.9
2021-11-29T00:21:00Z,00000200,01000000,0000.78,0000.18,0000.29,-000.70,0000.47,-000.32,-000.19,0000.44,0000.06,19.2,25.4,,00.0,0635.0,30.9
2021-11-29T00:22:00Z,00000200,01000000,0000.22,0000.28,0000.15,-000.26,0000.43,0000.12,-000.11,-000.62,0000.19,19.2,25.4,,00.0,0635.1,30.9
2021-11-29T00:23:00Z,00000200,01000000,0000.82,-000.10,0000.23,0000.90,0000.24,-000.07,-000.14,0000.09,-000.47,19.1,25.4,,00.0,0635.2,30.9
2021-11-29T00:24:00Z,00000200,01000000,-000.16,-000.02,0000.26,0000.54,0000.50,0000.05,-000.28,-000.52,-000.57,19.0,25.3,,00.0,0635.3,30.8
2021-11-29T00:25:00Z,00000200,01000000,0000.43,0000.47,0000.31,0000.64,0000.50,-000.12,-000.15,-000.29,-000.39,18.9,25.3,,00.0,0635.4,30.8
2021-11-29T00:26:00Z,00000200,01000000,0000.82,0000.47,0000.19,0000.46,0000.35,0000.24,-000.26,0000.05,-000.21,18.9,25.3,,00.0,0635.3,30.8
2021-11-29T00:27:00Z,00000200,01000000,0000.22,0000.38,0000.02,0000.53,0000.42,0000.14,0000.38,0000.38,0000.34,18.9,25.3,,00.0,0635.3,30.8
2021-11-29T00:28:00Z,00000200,01000000,0000.39,0000.15,0000.56,-000.03,-000.09,-000.05,0000.11,-000.01,-000.18,19.0,25.3,,00.0,0635.3,30.8
2021-11-29T00:29:00Z,00000200,01000000,-000.48,0000.14,0000.38,0000.33,0000.36,-000.17,0000.08,0000.19,0000.19,19.0,25.3,,00.0,0635.2,30.8
2021-11-29T00:30:00Z,00000200,01000000,-000.22,0000.09,0000.29,0000.37,0000.36,-000.01,0000.22,-000.10,0000.01,19.0,25.3,,00.0,0635.2,30.9
2021-11-29T00:31:00Z,00000200,01000000,0000.09,0000.54,0000.13,-000.05,0000.11,0000.05,0000.30,0000.29,0000.48,19.0,25.3,,00.0,0635.2,30.8
2021-11-29T00:32:00Z,00000200,01000000,0000.24,0000.07,0000.45,-000.07,0000.10,-000.12,0000.06,-000.02,-000.32,19.1,25.3,,00.0,0635.2,30.8
2021-11-29T00:33:00Z,00000200,01000000,0000.66,0000.28,0000.32,0000.27,0000.10,-000.16,-000.11,-000.02,0000.30,19.1,25.3,,00.0,0635.3,30.8
2021-11-29T00:34:00Z,00000200,01000000,0000.51,0000.31,0000.02,-000.18,0000.13,0000.18,0000.24,0000.17,-000.07,19.1,25.3,,00.0,0635.3,30.9
2021-11-29T00:35:00Z,00000200,01000000,0000.77,0000.38,0000.66,-000.30,0000.22,0000.28,-000.11,0000.16,-000.26,19.1,25.3,,00.0,0635.3,30.9
2021-11-29T00:36:00Z,00000200,01000000,0000.37,0000.19,0000.16,0000.21,0000.31,0000.02,-000.03,0000.08,0000.17,19.2,25.4,,00.0,0635.2,30.9
2021-11-29T00:37:00Z,00000200,01000000,0000.20,0000.12,0000.04,0000.15,0000.22,-000.09,-000.05,-000.37,-000.08,19.2,25.4,,00.0,0635.2,30.9
2021-11-29T00:38:00Z,00000200,01000000,-000.48,-000.10,0000.02,-000.55,0000.18,-000.04,-000.33,-000.38,-000.31,19.1,25.4,,00.0,0635.2,30.8
2021-11-29T00:39:00Z,00000200,01000000,0001.09,-000.25,0000.22,0000.30,0000.36,-000.08,0000.35,0000.45,0000.40,19.0,25.3,,00.0,0635.1,30.8
2021-11-29T00:40:00Z,00000200,01000000,0000.60,0000.08,0000.31,0000.55,0000.37,0000.37,0000.55,0000.63,-000.04,19.0,25.3,,00.0,0635.0,30.8
2021-11-29T00:41:00Z,00000200,01000000,0000.14,0000.13,0000.06,0000.05,0000.42,-000.20,0000.48,0000.37,0000.37,18.9,25.3,,00.0,0635.0,30.8
2021-11-29T00:42:00Z,00000200,01000000,0000.47,0000.56,0000.46,0000.41,0000.56,-000.02,0000.41,0000.20,0000.72,19.0,25.3,,00.0,0635.0,30.8
2021-11-29T00:43:00Z,00000200,01000000,0000.76,0000.43,0000.02,0000.30,0000.03,-000.09,0000.45,0000.33,0000.15,19.0,25.2,,00.0,0635.0,30.8
2021-11-29T00:44:00Z,00000200,01000000,0000.35,0000.18,0000.40,-000.28,-000.01,0000.27,0000.53,0000.78,0000.50,19.0,25.3,,00.0,0634.9,30.8
2021-11-29T00:45:00Z,00000200,01000000,0000.67,0000.19,-000.05,0000.46,0000.14,-000.03,0000.42,0000.60,0000.23,19.0,25.3,,00.0,0634.8,30.8
2021-11-29T00:46:00Z,00000200,01000000,0000.85,-000.02,0000.12,-000.22,0000.06,0000.22,0000.06,0000.23,0000.41,19.0,25.3,,00.0,0634.8,30.8
2021-11-29T00:47:00Z,00000200,01000000,0000.21,0000.42,0000.43,0000.07,0000.31,0000.08,0000.59,-000.02,0000.11,19.0,25.3,,00.0,0634.8,30.8
2021-11-29T00:48:00Z,00000200,01000000,0000.45,0000.19,0000.28,0000.43,0000.28,-000.12,0000.19,0000.16,0000.27,19.1,25.3,,00.0,0634.8,30.8
2021-11-29T00:49:00Z,00000200,01000000,0000.36,0000.44,0000.27,-000.72,0000.27,0000.43,-000.28,0000.12,-000.15,19.1,25.3,,00.0,0634.8,30.8
2021-11-29T00:50:00Z,00000200,01000000,0001.08,0000.12,0000.02,0000.60,-000.10,0000.15,0000.18,-000.36,0000.04,19.1,25.3,,00.0,0634.8,30.8
2021-11-29T00:51:00Z,00000200,01000000,-000.13,0000.18,-000.00,0000.12,0000.19,0000.10,-000.11,0000.11,-000.26,19.1,25.3,,00.0,0634.8,30.9
2021-11-29T00:52:00Z,00000200,01000000,0000.86,0000.70,0000.38,0000.34,0000.06,-000.26,-000.02,-000.07,-000.07,19.1,25.3,,00.0,0634.8,30.9
2021-11-29T00:53:00Z,00000200,01000000,0000.59,0000.10,0000.44,0000.61,0000.25,0000.12,0000.07,0000.29,0000.27,19.0,25.3,,00.0,0634.8,30.8
2021-11-29T00:54:00Z,00000200,01000000,0000.15,0000.03,0000.25,-000.08,0000.17,0000.27,0000.28,0000.10,-000.04,18.9,25.3,,00.0,0634.8,30.8
2021-11-29T00:55:00Z,00000200,01000000,0000.29,0000.31,0000.30,-000.20,0000.15,-000.17,0000.18,0000.01,0000.01,18.9,25.2,,00.0,0634.8,30.8
2021-11-29T00:56:00Z,00000200,01000000,0000.56,0000.49,0000.25,-000.45,0000.28,-000.29,0000.53,0000.49,0000.42,18.8,25.2,,00.0,0634.7,30.8
2021-11-29T00:57:00Z,00000200,41000000,,,,,,,0000.29,0000.35,0000.42,18.9,25.2,,00.0,0634.8,30.8
2021-11-29T00:58:00Z,00000200,61000000,,,,,,,-000.37,-000.28,-000.54,18.6,25.3,,00.0,0633.9,30.8
2021-11-29T00:59:00Z,00000200,21000000,,,,,,,0000.24,0000.52,0000.11,18.6,25.4,,00.0,0633.9,30.8
